Regional Weather Roundup
Issued by NWS Sioux Falls, SD

Home | Current Version | Previous Version | Text Only | Print | Product List | Glossary On
Versions: 1 2 3 4 5 6 7 8 9 10 11 12 13 14 15 16 17 18 19 20 21 22 23 24 25 26 27 28 29 30 31 32 33 34 35 36 37 38 39 40 41 42 43 44 45 46 47 48 49 50
000
ASUS43 KFSD 051502
RWRFSD

WEATHER ROUNDUP FOR SE SOUTH DAKOTA/SW MINNESOTA/NW IOWA
NATIONAL WEATHER SERVICE SIOUX FALLS SD
1000 AM CDT TUE MAY 05 2015

NOTE: "FAIR" INDICATES FEW OR NO CLOUDS BELOW 12,000 FEET WITH NO
SIGNIFICANT WEATHER AND OR OBSTRUCTIONS TO VISIBILITY.


SDZ038>040-050-052>070-051600-
SOUTHEAST SOUTH DAKOTA

CITY           SKY/WX    TMP DP  RH WIND       PRES   REMARKS
BROOKINGS      MOSUNNY   64  30  27 E16       30.12S
CHAMBERLAIN    NOT AVBL
HURON          SUNNY     66  32  28 E15G23    30.09F
MADISON        FAIR      64  30  27 E20G29    30.10F
MITCHELL       MOSUNNY   65  35  33 SE13      30.08F
SIOUX FALLS    PTSUNNY   62  37  39 E14       30.08F
WINNER         CLOUDY    60  45  57 SE15      30.05F
YANKTON        CLOUDY    61  43  51 E10G18    30.06F
$$

MNZ071-072-080-081-089-090-097-098-051600-
SOUTHWEST MINNESOTA

CITY           SKY/WX    TMP DP  RH WIND       PRES   REMARKS
FAIRMONT       CLOUDY    57  48  72 E10       30.13S
JACKSON        CLOUDY    61  45  55 E13       30.13S
LUVERNE        CLOUDY    63  43  48 SE12      30.11S
MARSHALL       SUNNY     64  32  29 E16       30.13F
MONTEVIDEO     SUNNY     68  28  22 SE15      30.14F
REDWOOD FALLS  MOSUNNY   65  37  35 E9        30.14F
TRACY          MOSUNNY   65  36  34 E14       30.13F
WORTHINGTON    CLOUDY    57  39  51 E12       30.13S
$$

IAZ001>003-012>014-020>022-031-032-NEZ013-014-SDZ071-051600-
NORTHWEST IOWA

CITY           SKY/WX    TMP DP  RH WIND       PRES   REMARKS
ESTHERVILLE    LGT RAIN  56  53  90 E12       30.12S FOG
SIOUX CITY     CLOUDY    57  53  86 SE7       30.09S
SPENCER        CLOUDY    57  53  86 E12       30.11S
$$

ABBREVIATIONS USED IN REMARKS
   TC - TEMPERATURE IN CELSIUS
  WCI - WIND CHILL INDEX
   HX - HEAT INDEX
  VSB - VISIBILITY




USA.gov is the U.S. government's official web portal to all federal, state and local government web resources and services.